Regional Weather Roundup
Issued by NWS

Home | Current Version | Previous Version | Text Only | Print | Product List | Glossary On
Versions: 1 2 3 4 5 6 7 8 9 10 11 12 13 14 15 16 17 18 19 20 21 22 23 24 25 26 27 28
000
ASUS45 KBOU 011307
RWRCO

WEATHER ROUNDUP FOR COLORADO
NATIONAL WEATHER SERVICE DENVER/BOULDER CO
700 AM MDT SAT NOV 01 2014

NOTE: "FAIR" INDICATES FEW OR NO CLOUDS BELOW 12000 FEET WITH NO
SIGNIFICANT WEATHER AND/OR OBSTRUCTIONS TO VISIBILITY.

COZ001>005-013-030-031-011400-
...NORTHWEST COLORADO...

CITY           SKY/WX    TMP DP  RH WIND       PRES   REMARKS
CRAIG          MOCLDY    39  31  72 CALM      29.98F
HAYDEN         MOCLDY    43  27  52 SE13      30.00F
MEEKER         CLOUDY    42  32  67 CALM      29.99F
MOUNT WERNER   NOT AVBL
STEAMBOAT SPGS MOCLDY    33  27  80 E5        30.04F WCI  28
WALDEN         MOCLDY    36  25  64 SE8       30.09F
$$

COZ006>008-011-011400-
...WEST CENTRAL VALLEYS...

CITY           SKY/WX    TMP DP  RH WIND       PRES   REMARKS
GRAND JUNCTION CLOUDY    55  38  52 S14       29.93F
MONTROSE       CLOUDY    52  29  41 N3        30.02S
EAGLE          MOCLDY    34  27  75 CALM      30.11F
RIFLE          LGT RAIN  44  35  70 SW7       30.01R
DELTA          LGT RAIN  49  38  66 E10       29.99F
NUCLA          CLOUDY    54  39  58 N6        30.04S
$$

COZ017>023-064>068-011400-
...SOUTHWEST COLORADO...

CITY           SKY/WX    TMP DP  RH WIND       PRES   REMARKS
DURANGO        CLOUDY    46  44  93 NE6       30.16F
CORTEZ         CLOUDY    56  40  55 SE17G28   30.06R
PAGOSA SPRINGS LGT RAIN  43  42  97 CALM      30.23S
TELLURIDE      CLOUDY    44  38  78 SE13      30.20F
WOLF CREEK PAS CLOUDY    30  30 100 SW13      30.34S VSB 1/4 WCI  20
$$

COZ009-010-012-014-032>034-037-058>063-011400-
...CENTRAL COLORADO...

CITY           SKY/WX    TMP DP  RH WIND       PRES   REMARKS
ASPEN          PTCLDY    47  29  49 S13       30.10F
BUENA VISTA    MOCLDY    30  24  79 NW5       30.20F WCI  25
COPPER MTN     MOCLDY    37  25  60 S21       30.31F
BERTHOUD PASS  FAIR      32  28  86 W16       30.33S WCI  21
COTTONWOOD PAS MOCLDY    39  27  60 CALM      30.25F
GUNNISON       MOCLDY    28  16  59 CALM      30.20S
KREMMLING      CLOUDY    28  27  93 CALM      30.16S
LEADVILLE      MOCLDY    27  20  75 NE5       30.25S WCI  22
MONARCH PASS   FOG       32  30  93 S18       30.43F VSB<1/4 WCI  20
SALIDA         MOCLDY    48  34  57 W6        30.24F
SUNLIGHT       CLOUDY    41  32  70 S3        30.23F
WILKERSON PASS NOT AVBL
$$

COZ069>075-011400-
...SAN LUIS VALLEY/SANGRE DE CRISTO MOUNTAINS...

CITY           SKY/WX    TMP DP  RH WIND       PRES   REMARKS
ALAMOSA        MOCLDY    38  32  79 SE5       30.20F
LA VETA PASS   NOT AVBL
SAGUACHE       CLOUDY    34  23  64 NW6       30.24F WCI  29
$$

COZ035-036-038>040-011400-
...NORTHERN COLORADO FRONT RANGE...

CITY           SKY/WX    TMP DP  RH WIND       PRES   REMARKS
DENVER INTL AP MOCLDY    37  28  70 CALM      29.96S
DMNS CITY PARK   N/A     34  30  83 NW1       29.96S
AURORA         MOCLDY    47  29  49 S13       29.97F
FRONT RANGE AP MOCLDY    41  32  70 S14       29.96F
ERIE MUNI ARPT MOCLDY    31  29  90 CALM      29.96F
BOULDER MUN AP MOCLDY    34  30  86 NW3       29.96R
CENTENNIAL     MOCLDY    56  28  34 SW18      29.97F
BROOMFIELD     MOCLDY    36  30  80 W6        29.96F
FORT COLLINS   MOCLDY    30  27  86 N5        29.98S WCI  25
LONGMONT       MOCLDY    33  30  89 W3        29.99R
$$

COZ041-046-047-076>085-087-088-011400-
...PIKES PEAK/PALMER DIVIDE AND SOUTHERN FOOTHILLS...

CITY           SKY/WX    TMP DP  RH WIND       PRES   REMARKS
COLO. SPRINGS  MOCLDY    41  29  62 NE5       30.03F
A. F. ACADEMY  MOCLDY    42  28  58 SE6       30.03F
ELLICOTT       MOCLDY    39  29  67 N5        30.01F
FALCON         MOCLDY    42  27  54 N3        30.05F
FORT CARSON    MOCLDY    38  29  68 N7        30.00F
LIMON          CLEAR     22  19  89 N3        30.01F
MONUMENT HILL  PTCLDY    48  28  46 CALM      30.05S
TRINIDAD       CLEAR     51  33  50 SW15      30.07R
$$

COZ042>045-048>051-090-091-011400-
...NORTHEAST COLORADO...

CITY           SKY/WX    TMP DP  RH WIND       PRES   REMARKS
GREELEY ARPT   MOCLDY    28  18  64 CALM      29.98S
AKRON          CLEAR     27  23  85 S7        29.97F WCI  19
BURLINGTON     PTCLDY    34  25  69 S16       30.01F WCI  24
WRAY           PTCLDY    27  21  80 E7        30.04F WCI  19
STERLING       CLEAR     27  25  93 CALM      29.98S
HOLYOKE        PTCLDY    28  21  74 SE8       30.03F WCI  20
FORT MORGAN    CLEAR     27  24  87 N8        29.97F WCI  19
$$

COZ086-089-092>099-011400-
...SOUTHEAST COLORADO...

CITY           SKY/WX    TMP DP  RH WIND       PRES   REMARKS
PUEBLO         MOCLDY    35  27  72 NE5       29.99F WCI  31
LA JUNTA       PTCLDY    35  28  75 W7        30.01F WCI  29
LAMAR          PTCLDY    37  30  75 E5        30.00F
SPRINGFIELD      N/A     42  32  67 S22G32    30.05F
$$



USA.gov is the U.S. government's official web portal to all federal, state and local government web resources and services.